Home   Weather   Memphis   Past weeks

Flag for USA Past Weather in Memphis, Tennessee, USA — Yesterday and Last 2 Weeks

Now
87 °F

Passing clouds.


Feels Like: 94 °F
Forecast: 74 / 86 °F
Wind: 12 mph from North

Location: Memphis International Airport

Current Time: Aug 31, 2016 at 9:01:31 PM

Latest Report: Aug 31, 2016 at 7:54 PM


Visibility: 10 mi

Pressure: 29.91 "Hg

Humidity: 61%

Dew Point: 72 °F

Location of MemphisLocation

Past Weather in Memphis — Graph

°F

Memphis Temperature Yesterday

Maximum temperature yesterday: 97 °F (at 2:54 PM)
Minimum temperature yesterday: 79 °F (at 5:54 AM)
Average temperature yesterday: 88 °F

High & Low Weather Summary for the Past Weeks

 TemperatureHumidityPressure
High97 °F (Aug 28, 1:54 PM)94% (Aug 17, 2:54 AM)30.22 "Hg (Aug 17, 2:54 AM)
Low70 °F (Aug 22, 5:54 AM)35% (Aug 30, 1:54 PM)29.81 "Hg (Aug 20, 5:54 PM)
Average82 °F71%30.04 "Hg
* Reported Aug 16 7:54 PM — Aug 31 7:54 PM, Memphis, Weather by CustomWeather, © 2016

Note: Actual official high and low records may vary slightly from our data, if they occured in-between our weather recording intervals... More about our weather records

Advertising

Memphis Weather History for the Previous 24 Hours

Scroll right to see more
 ConditionsComfort  
Time TempWeatherWind HumidityBarometerVisibility
7:54 PM
Wed, Aug 31
87 °FPassing clouds.12 mph61%29.91 "Hg10 mi
6:54 PM90 °FScattered clouds.10 mph52%29.90 "Hg10 mi
5:54 PM93 °FScattered clouds.9 mph46%29.89 "Hg10 mi
4:54 PM94 °FScattered clouds.7 mph46%29.90 "Hg10 mi
3:54 PM93 °FScattered clouds.10 mph46%29.90 "Hg10 mi
2:54 PM94 °FScattered clouds.8 mph48%29.93 "Hg10 mi
1:54 PM94 °FScattered clouds.6 mph46%29.94 "Hg10 mi
12:54 PM96 °FPassing clouds.7 mph38%29.96 "Hg10 mi
11:54 AM94 °FScattered clouds.5 mph46%29.97 "Hg10 mi
10:54 AM92 °FPassing clouds.3 mph54%29.98 "Hg10 mi
9:54 AM90 °FSunny.5 mph57%29.99 "Hg10 mi
8:54 AM86 °FSunny.No wind65%29.99 "Hg10 mi
7:54 AM82 °FSunny.No wind72%29.98 "Hg10 mi
6:54 AM79 °FSunny.3 mph77%29.98 "Hg10 mi
5:54 AM78 °FClear.No wind79%29.98 "Hg10 mi
4:54 AM80 °FClear.5 mph74%29.98 "Hg10 mi
3:54 AM80 °FClear.3 mph74%29.99 "Hg10 mi
2:54 AM82 °FClear.5 mph70%29.99 "Hg10 mi
1:54 AM82 °FClear.5 mph70%29.99 "Hg10 mi
12:54 AM83 °FClear.7 mph68%29.98 "Hg10 mi
11:54 PM
Tue, Aug 30
84 °FClear.7 mph65%29.98 "Hg10 mi
10:54 PM85 °FClear.7 mph65%29.98 "Hg10 mi
9:54 PM86 °FClear.9 mph63%29.98 "Hg10 mi
Weather by CustomWeather, © 2016

See weather overviewHow to use our weather pages